Time,TemperatureF,DewpointF,PressureIn,WindDirection,WindDirectionDegrees,WindSpeedMPH,WindSpeedGustMPH,Humidity,HourlyPrecipIn,Conditions,Clouds,dailyrainin,SoftwareType,DateUTC
2013-03-10 00:00:00,37.4,36.1,29.68,SSE,163,0.0,0.0,95,0.03,,---,0.00,VWS V14.00,2013-03-10 06:00:00,
2013-03-10 00:05:00,37.3,36.0,29.68,SSE,161,2.0,3.0,95,0.03,,---,0.00,VWS V14.00,2013-03-10 06:05:00,
2013-03-10 00:10:00,37.5,36.2,29.68,SE,135,1.0,1.0,95,0.02,,---,0.00,VWS V14.00,2013-03-10 06:10:00,
2013-03-10 00:15:00,37.5,36.2,29.68,SSE,159,1.0,2.0,95,0.03,,---,0.01,VWS V14.00,2013-03-10 06:15:00,
2013-03-10 00:20:00,37.5,36.2,29.68,ESE,117,2.0,2.0,95,0.03,,---,0.01,VWS V14.00,2013-03-10 06:20:00,
2013-03-10 00:25:00,37.6,36.3,29.67,ENE,71,1.0,2.0,95,0.03,,---,0.01,VWS V14.00,2013-03-10 06:25:00,
2013-03-10 00:30:00,37.6,36.3,29.67,East,90,3.0,3.0,95,0.02,,---,0.01,VWS V14.00,2013-03-10 06:30:00,
2013-03-10 00:35:00,37.6,36.3,29.67,ESE,114,3.0,4.0,95,0.03,,---,0.02,VWS V14.00,2013-03-10 06:35:00,
2013-03-10 00:40:00,37.5,36.2,29.67,SE,138,3.0,4.0,95,0.03,,---,0.02,VWS V14.00,2013-03-10 06:40:00,
2013-03-10 00:45:00,37.4,35.8,29.67,SE,141,0.0,0.0,94,0.03,,---,0.02,VWS V14.00,2013-03-10 06:45:00,
2013-03-10 00:50:00,37.5,35.9,29.67,ESE,113,0.0,0.0,94,0.02,,---,0.02,VWS V14.00,2013-03-10 06:50:00,
2013-03-10 00:55:00,37.4,35.8,29.67,ESE,113,0.0,0.0,94,0.02,,---,0.02,VWS V14.00,2013-03-10 06:55:00,
2013-03-10 01:00:00,37.4,35.8,29.68,East,86,0.0,0.0,94,0.03,,---,0.03,VWS V14.00,2013-03-10 07:00:00,
2013-03-10 01:05:00,37.6,36.3,29.68,East,86,1.0,1.0,95,0.03,,---,0.03,VWS V14.00,2013-03-10 07:05:00,
2013-03-10 01:10:00,37.9,36.6,29.69,SSW,206,0.0,2.0,95,0.03,,---,0.03,VWS V14.00,2013-03-10 07:10:00,
2013-03-10 01:15:00,38.0,36.7,29.69,SW,215,0.0,2.0,95,0.02,,---,0.03,VWS V14.00,2013-03-10 07:15:00,
2013-03-10 01:21:00,37.9,36.3,29.69,SW,214,0.0,0.0,94,0.03,,---,0.04,VWS V14.00,2013-03-10 07:21:00,
2013-03-10 01:25:00,37.8,36.2,29.68,SW,214,0.0,0.0,94,0.03,,---,0.04,VWS V14.00,2013-03-10 07:25:00,
2013-03-10 01:30:00,37.7,36.1,29.68,SW,215,0.0,0.0,94,0.03,,---,0.04,VWS V14.00,2013-03-10 07:30:00,
2013-03-10 01:36:00,37.6,36.0,29.67,SW,214,0.0,0.0,94,0.02,,---,0.04,VWS V14.00,2013-03-10 07:36:00,
2013-03-10 01:41:00,37.4,36.1,29.67,SW,215,0.0,0.0,95,0.02,,---,0.04,VWS V14.00,2013-03-10 07:41:00,
2013-03-10 01:46:00,37.2,35.6,29.67,SW,215,0.0,0.0,94,0.03,,---,0.05,VWS V14.00,2013-03-10 07:46:00,
2013-03-10 01:51:00,37.2,35.9,29.67,SSW,209,0.0,3.0,95,0.03,,---,0.05,VWS V14.00,2013-03-10 07:51:00,
2013-03-10 01:56:00,37.3,36.0,29.67,SSW,202,0.0,0.0,95,0.04,,---,0.06,VWS V14.00,2013-03-10 07:56:00,
2013-03-10 03:01:00,37.3,36.0,29.67,SSW,202,0.0,0.0,95,0.03,,---,0.06,VWS V14.00,2013-03-10 08:01:00,
2013-03-10 03:06:00,37.3,36.0,29.67,SSW,202,0.0,0.0,95,0.03,,---,0.06,VWS V14.00,2013-03-10 08:06:00,
2013-03-10 03:11:00,37.3,36.0,29.66,SSW,202,0.0,0.0,95,0.04,,---,0.07,VWS V14.00,2013-03-10 08:11:00,
2013-03-10 03:16:00,37.3,36.0,29.66,SSW,202,0.0,0.0,95,0.04,,---,0.07,VWS V14.00,2013-03-10 08:16:00,
2013-03-10 03:21:00,37.5,36.5,29.65,SSE,155,1.0,4.0,96,0.03,,---,0.07,VWS V14.00,2013-03-10 08:21:00,
2013-03-10 03:26:00,37.7,36.7,29.65,SSE,155,0.0,0.0,96,0.03,,---,0.07,VWS V14.00,2013-03-10 08:26:00,
2013-03-10 03:31:00,37.8,36.8,29.65,SSE,155,0.0,0.0,96,0.04,,---,0.08,VWS V14.00,2013-03-10 08:31:00,
2013-03-10 03:36:00,37.8,36.8,29.65,SW,229,0.0,2.0,96,0.04,,---,0.08,VWS V14.00,2013-03-10 08:36:00,
2013-03-10 03:41:00,37.8,36.8,29.65,SW,229,0.0,1.0,96,0.04,,---,0.08,VWS V14.00,2013-03-10 08:41:00,
2013-03-10 03:46:00,37.9,36.9,29.64,SSW,206,2.0,2.0,96,0.03,,---,0.08,VWS V14.00,2013-03-10 08:46:00,
2013-03-10 03:51:00,37.9,36.9,29.64,SSW,207,0.0,0.0,96,0.03,,---,0.08,VWS V14.00,2013-03-10 08:51:00,
2013-03-10 03:56:00,37.9,36.9,29.63,SSW,207,0.0,0.0,96,0.03,,---,0.08,VWS V14.00,2013-03-10 08:56:00,
2013-03-10 04:01:00,37.7,36.7,29.62,SSW,206,0.0,0.0,96,0.02,,---,0.08,VWS V14.00,2013-03-10 09:01:00,
2013-03-10 04:06:00,37.7,36.7,29.62,SSW,206,0.0,0.0,96,0.02,,---,0.08,VWS V14.00,2013-03-10 09:06:00,
2013-03-10 04:11:00,37.7,36.7,29.62,SSW,206,0.0,0.0,96,0.01,,---,0.08,VWS V14.00,2013-03-10 09:11:00,
2013-03-10 04:16:00,37.6,36.6,29.62,SSW,207,0.0,1.0,96,0.02,,---,0.09,VWS V14.00,2013-03-10 09:16:00,
2013-03-10 04:21:00,37.6,36.6,29.62,SSW,207,0.0,0.0,96,0.02,,---,0.09,VWS V14.00,2013-03-10 09:21:00,
2013-03-10 04:26:00,37.6,36.6,29.62,SSW,207,0.0,0.0,96,0.03,,---,0.10,VWS V14.00,2013-03-10 09:26:00,
2013-03-10 04:31:00,37.7,36.7,29.63,South,171,2.0,4.0,96,0.02,,---,0.10,VWS V14.00,2013-03-10 09:31:00,
2013-03-10 04:36:00,38.0,37.2,29.64,South,171,0.0,2.0,97,0.03,,---,0.11,VWS V14.00,2013-03-10 09:36:00,
2013-03-10 04:41:00,38.2,37.2,29.64,SSE,163,1.0,5.0,96,0.04,,---,0.12,VWS V14.00,2013-03-10 09:41:00,
2013-03-10 04:46:00,38.2,37.2,29.64,SSE,161,3.0,4.0,96,0.05,,---,0.13,VWS V14.00,2013-03-10 09:46:00,
2013-03-10 04:51:00,38.3,37.3,29.63,SSE,159,1.0,4.0,96,0.06,,---,0.14,VWS V14.00,2013-03-10 09:51:00,
2013-03-10 04:56:00,38.3,37.3,29.63,SE,131,3.0,4.0,96,0.06,,---,0.14,VWS V14.00,2013-03-10 09:56:00,
2013-03-10 05:01:00,38.3,37.3,29.63,SSE,155,1.0,2.0,96,0.07,,---,0.15,VWS V14.00,2013-03-10 10:01:00,
2013-03-10 05:06:00,38.2,37.2,29.63,SSE,167,0.0,1.0,96,0.08,,---,0.16,VWS V14.00,2013-03-10 10:06:00,
2013-03-10 05:11:00,38.2,37.2,29.64,SSE,167,0.0,1.0,96,0.08,,---,0.16,VWS V14.00,2013-03-10 10:11:00,
2013-03-10 05:16:00,38.3,37.5,29.64,WSW,252,0.0,0.0,97,0.09,,---,0.18,VWS V14.00,2013-03-10 10:16:00,
2013-03-10 05:21:00,38.4,37.6,29.63,SSW,198,0.0,3.0,97,0.10,,---,0.19,VWS V14.00,2013-03-10 10:21:00,
2013-03-10 05:26:00,38.4,37.6,29.64,SSW,198,1.0,1.0,97,0.10,,---,0.19,VWS V14.00,2013-03-10 10:26:00,
2013-03-10 05:31:00,38.2,37.2,29.64,WNW,284,2.0,4.0,96,0.10,,---,0.20,VWS V14.00,2013-03-10 10:31:00,
2013-03-10 05:36:00,38.0,37.2,29.64,WNW,293,3.0,4.0,97,0.11,,---,0.22,VWS V14.00,2013-03-10 10:36:00,
2013-03-10 05:41:00,37.9,37.1,29.64,WNW,293,0.0,1.0,97,0.11,,---,0.23,VWS V14.00,2013-03-10 10:41:00,
2013-03-10 05:46:00,37.9,37.1,29.64,WNW,292,2.0,3.0,97,0.12,,---,0.25,VWS V14.00,2013-03-10 10:46:00,
2013-03-10 05:51:00,37.8,37.0,29.65,WNW,292,0.0,1.0,97,0.12,,---,0.26,VWS V14.00,2013-03-10 10:51:00,
2013-03-10 05:56:00,37.7,36.9,29.64,WNW,293,0.0,0.0,97,0.12,,---,0.26,VWS V14.00,2013-03-10 10:56:00,
2013-03-10 06:01:00,37.3,36.5,29.64,WNW,292,0.0,1.0,97,0.12,,---,0.27,VWS V14.00,2013-03-10 11:01:00,
2013-03-10 06:06:00,36.9,35.9,29.64,WNW,293,0.0,0.0,96,0.12,,---,0.27,VWS V14.00,2013-03-10 11:06:00,
2013-03-10 06:11:00,36.9,36.1,29.63,WNW,293,0.0,0.0,97,0.11,,---,0.27,VWS V14.00,2013-03-10 11:11:00,
2013-03-10 06:16:00,36.8,36.0,29.62,WNW,293,0.0,0.0,97,0.11,,---,0.28,VWS V14.00,2013-03-10 11:16:00,
2013-03-10 06:21:00,36.8,36.0,29.62,WNW,292,0.0,1.0,97,0.10,,---,0.28,VWS V14.00,2013-03-10 11:21:00,
2013-03-10 06:26:00,37.1,36.3,29.60,ESE,114,2.0,4.0,97,0.09,,---,0.28,VWS V14.00,2013-03-10 11:26:00,
2013-03-10 06:31:00,37.1,36.3,29.58,ESE,109,3.0,5.0,97,0.08,,---,0.28,VWS V14.00,2013-03-10 11:31:00,
2013-03-10 06:36:00,37.5,36.7,29.58,ENE,71,0.0,5.0,97,0.07,,---,0.28,VWS V14.00,2013-03-10 11:36:00,
2013-03-10 06:41:00,38.0,37.2,29.60,North,9,0.0,1.0,97,0.05,,---,0.28,VWS V14.00,2013-03-10 11:41:00,
2013-03-10 06:46:00,38.2,37.4,29.60,North,9,0.0,1.0,97,0.04,,---,0.28,VWS V14.00,2013-03-10 11:46:00,
2013-03-10 06:51:00,38.2,37.4,29.60,North,9,0.0,0.0,97,0.03,,---,0.28,VWS V14.00,2013-03-10 11:51:00,
2013-03-10 06:56:00,38.2,37.4,29.60,North,9,0.0,0.0,97,0.02,,---,0.28,VWS V14.00,2013-03-10 11:56:00,
2013-03-10 07:01:00,38.2,37.4,29.59,ESE,111,3.0,3.0,97,0.01,,---,0.28,VWS V14.00,2013-03-10 12:01:00,
2013-03-10 07:06:00,38.5,38.0,29.58,ESE,117,1.0,1.0,98,0.01,,---,0.28,VWS V14.00,2013-03-10 12:06:00,
2013-03-10 07:11:00,38.5,38.0,29.61,NNW,331,1.0,3.0,98,0.01,,---,0.28,VWS V14.00,2013-03-10 12:11:00,
2013-03-10 07:16:00,38.6,38.1,29.64,WNW,294,0.0,5.0,98,0.00,,---,0.28,VWS V14.00,2013-03-10 12:16:00,
2013-03-10 07:22:00,38.5,37.7,29.64,NW,314,2.0,2.0,97,0.00,,---,0.28,VWS V14.00,2013-03-10 12:22:00,
2013-03-10 07:27:00,38.3,37.5,29.65,NW,314,0.0,3.0,97,0.00,,---,0.28,VWS V14.00,2013-03-10 12:27:00,
2013-03-10 07:32:00,38.1,37.3,29.66,West,276,0.0,2.0,97,0.00,,---,0.28,VWS V14.00,2013-03-10 12:32:00,
2013-03-10 07:37:00,38.1,37.3,29.64,West,276,0.0,0.0,97,0.00,,---,0.28,VWS V14.00,2013-03-10 12:37:00,
2013-03-10 07:42:00,38.1,37.3,29.63,West,277,0.0,0.0,97,0.00,,---,0.28,VWS V14.00,2013-03-10 12:42:00,
2013-03-10 07:47:00,38.0,37.2,29.65,West,276,0.0,0.0,97,0.00,,---,0.28,VWS V14.00,2013-03-10 12:47:00,
2013-03-10 07:52:00,37.8,37.0,29.65,West,277,0.0,1.0,97,0.00,,---,0.28,VWS V14.00,2013-03-10 12:52:00,
2013-03-10 07:57:00,37.8,37.0,29.65,West,277,0.0,1.0,97,0.00,,---,0.28,VWS V14.00,2013-03-10 12:57:00,
2013-03-10 08:02:00,37.4,36.6,29.65,West,276,0.0,0.0,97,0.00,,---,0.28,VWS V14.00,2013-03-10 13:02:00,
2013-03-10 08:07:00,37.1,36.3,29.65,West,277,0.0,0.0,97,0.00,,---,0.28,VWS V14.00,2013-03-10 13:07:00,
2013-03-10 08:12:00,36.9,36.1,29.66,West,276,0.0,0.0,97,0.00,,---,0.28,VWS V14.00,2013-03-10 13:12:00,
2013-03-10 08:17:00,37.0,36.2,29.67,West,276,0.0,0.0,97,0.00,,---,0.28,VWS V14.00,2013-03-10 13:17:00,
2013-03-10 08:22:00,37.1,36.3,29.68,West,277,0.0,0.0,97,0.00,,---,0.28,VWS V14.00,2013-03-10 13:22:00,
2013-03-10 08:27:00,37.1,36.3,29.69,West,277,0.0,0.0,97,0.00,,---,0.28,VWS V14.00,2013-03-10 13:27:00,
2013-03-10 08:32:00,37.0,36.2,29.70,West,277,0.0,0.0,97,0.00,,---,0.28,VWS V14.00,2013-03-10 13:32:00,
2013-03-10 08:37:00,36.9,36.1,29.70,West,277,0.0,0.0,97,0.00,,---,0.28,VWS V14.00,2013-03-10 13:37:00,
2013-03-10 08:42:00,36.7,35.9,29.70,West,276,0.0,0.0,97,0.00,,---,0.28,VWS V14.00,2013-03-10 13:42:00,
2013-03-10 08:47:00,36.7,35.9,29.69,West,277,0.0,1.0,97,0.00,,---,0.28,VWS V14.00,2013-03-10 13:47:00,
2013-03-10 08:52:00,36.8,36.3,29.69,West,277,0.0,0.0,98,0.00,,---,0.28,VWS V14.00,2013-03-10 13:52:00,
2013-03-10 08:57:00,36.9,36.4,29.68,West,277,0.0,0.0,98,0.00,,---,0.28,VWS V14.00,2013-03-10 13:57:00,
2013-03-10 09:02:00,37.3,36.8,29.69,West,277,0.0,0.0,98,0.01,,---,0.29,VWS V14.00,2013-03-10 14:02:00,
2013-03-10 09:07:00,37.4,36.9,29.69,West,277,0.0,0.0,98,0.01,,---,0.29,VWS V14.00,2013-03-10 14:07:00,
2013-03-10 09:12:00,37.4,36.9,29.68,West,277,0.0,0.0,98,0.02,,---,0.30,VWS V14.00,2013-03-10 14:12:00,
2013-03-10 09:17:00,37.4,36.9,29.68,West,277,0.0,0.0,98,0.02,,---,0.30,VWS V14.00,2013-03-10 14:17:00,
2013-03-10 09:22:00,37.4,36.9,29.69,West,276,0.0,0.0,98,0.02,,---,0.30,VWS V14.00,2013-03-10 14:22:00,
2013-03-10 09:27:00,37.4,36.9,29.69,West,277,0.0,0.0,98,0.03,,---,0.31,VWS V14.00,2013-03-10 14:27:00,
2013-03-10 09:32:00,37.5,37.0,29.68,West,276,0.0,0.0,98,0.03,,---,0.31,VWS V14.00,2013-03-10 14:32:00,
2013-03-10 09:37:00,37.5,37.0,29.68,West,277,0.0,0.0,98,0.03,,---,0.31,VWS V14.00,2013-03-10 14:37:00,
2013-03-10 09:42:00,37.6,37.1,29.67,West,277,0.0,0.0,98,0.03,,---,0.31,VWS V14.00,2013-03-10 14:42:00,
2013-03-10 09:47:00,37.7,37.2,29.67,West,277,0.0,0.0,98,0.03,,---,0.31,VWS V14.00,2013-03-10 14:47:00,
2013-03-10 09:52:00,37.8,37.3,29.67,West,277,0.0,0.0,98,0.03,,---,0.31,VWS V14.00,2013-03-10 14:52:00,
2013-03-10 09:57:00,37.9,37.4,29.67,West,277,0.0,0.0,98,0.03,,---,0.31,VWS V14.00,2013-03-10 14:57:00,
2013-03-10 10:02:00,37.3,36.8,29.67,West,277,0.0,0.0,98,0.02,,---,0.31,VWS V14.00,2013-03-10 15:02:00,
2013-03-10 10:07:00,36.8,36.3,29.67,West,277,0.0,0.0,98,0.02,,---,0.31,VWS V14.00,2013-03-10 15:07:00,
2013-03-10 10:12:00,36.4,35.6,29.67,West,277,0.0,0.0,97,0.01,,---,0.31,VWS V14.00,2013-03-10 15:12:00,
2013-03-10 10:17:00,36.6,36.1,29.67,West,277,0.0,0.0,98,0.01,,---,0.31,VWS V14.00,2013-03-10 15:17:00,
2013-03-10 10:22:00,36.8,36.3,29.68,West,277,0.0,0.0,98,0.01,,---,0.31,VWS V14.00,2013-03-10 15:22:00,
2013-03-10 10:27:00,37.1,36.6,29.68,West,277,0.0,0.0,98,0.01,,---,0.31,VWS V14.00,2013-03-10 15:27:00,
2013-03-10 10:32:00,37.3,36.8,29.69,West,277,0.0,0.0,98,0.00,,---,0.31,VWS V14.00,2013-03-10 15:32:00,
2013-03-10 10:37:00,37.5,37.0,29.68,West,276,0.0,0.0,98,0.00,,---,0.31,VWS V14.00,2013-03-10 15:37:00,
2013-03-10 10:42:00,37.7,37.2,29.68,West,277,0.0,1.0,98,0.00,,---,0.31,VWS V14.00,2013-03-10 15:42:00,
2013-03-10 10:47:00,37.9,37.4,29.69,West,276,0.0,0.0,98,0.00,,---,0.31,VWS V14.00,2013-03-10 15:47:00,
2013-03-10 10:52:00,38.1,37.6,29.69,West,276,0.0,1.0,98,0.00,,---,0.31,VWS V14.00,2013-03-10 15:52:00,
2013-03-10 10:57:00,38.6,38.1,29.69,West,276,0.0,2.0,98,0.00,,---,0.31,VWS V14.00,2013-03-10 15:57:00,
2013-03-10 11:02:00,39.0,38.5,29.69,West,277,0.0,1.0,98,0.00,,---,0.31,VWS V14.00,2013-03-10 16:02:00,
2013-03-10 11:07:00,38.4,37.9,29.70,West,277,0.0,1.0,98,0.00,,---,0.31,VWS V14.00,2013-03-10 16:07:00,
2013-03-10 11:12:00,38.3,37.8,29.69,West,276,0.0,0.0,98,0.00,,---,0.31,VWS V14.00,2013-03-10 16:12:00,
2013-03-10 11:17:00,38.6,38.1,29.70,West,277,0.0,0.0,98,0.00,,---,0.31,VWS V14.00,2013-03-10 16:17:00,
2013-03-10 11:22:00,38.7,38.2,29.69,North,9,0.0,4.0,98,0.00,,---,0.31,VWS V14.00,2013-03-10 16:22:00,
2013-03-10 11:27:00,38.6,38.1,29.69,North,360,0.0,1.0,98,0.00,,---,0.31,VWS V14.00,2013-03-10 16:27:00,
2013-03-10 11:33:00,38.3,37.8,29.69,North,5,0.0,1.0,98,0.00,,---,0.31,VWS V14.00,2013-03-10 16:33:00,
2013-03-10 11:38:00,38.3,37.8,29.69,North,360,0.0,0.0,98,0.00,,---,0.31,VWS V14.00,2013-03-10 16:38:00,
2013-03-10 11:43:00,38.4,37.9,29.70,North,360,2.0,2.0,98,0.00,,---,0.31,VWS V14.00,2013-03-10 16:43:00,
2013-03-10 11:48:00,37.9,37.4,29.70,North,5,0.0,1.0,98,0.00,,---,0.31,VWS V14.00,2013-03-10 16:48:00,
2013-03-10 11:53:00,38.0,37.5,29.70,North,360,0.0,0.0,98,0.00,,---,0.31,VWS V14.00,2013-03-10 16:53:00,
2013-03-10 11:58:00,38.1,37.6,29.69,North,360,0.0,0.0,98,0.00,,---,0.31,VWS V14.00,2013-03-10 16:58:00,
2013-03-10 12:03:00,38.3,37.8,29.67,North,5,0.0,4.0,98,0.00,,---,0.31,VWS V14.00,2013-03-10 17:03:00,
2013-03-10 12:08:00,38.4,37.9,29.66,North,360,0.0,4.0,98,0.00,,---,0.31,VWS V14.00,2013-03-10 17:08:00,
2013-03-10 12:13:00,38.5,38.0,29.67,North,360,0.0,1.0,98,0.00,,---,0.31,VWS V14.00,2013-03-10 17:13:00,
2013-03-10 12:18:00,38.6,38.1,29.67,East,96,0.0,1.0,98,0.00,,---,0.31,VWS V14.00,2013-03-10 17:18:00,
2013-03-10 12:23:00,38.5,38.0,29.67,East,96,0.0,0.0,98,0.00,,---,0.31,VWS V14.00,2013-03-10 17:23:00,
2013-03-10 12:28:00,38.5,38.0,29.67,East,88,0.0,0.0,98,0.00,,---,0.31,VWS V14.00,2013-03-10 17:28:00,
2013-03-10 12:33:00,38.5,38.0,29.67,East,88,0.0,0.0,98,0.00,,---,0.31,VWS V14.00,2013-03-10 17:33:00,
2013-03-10 12:38:00,38.5,38.0,29.68,North,9,0.0,4.0,98,0.00,,---,0.31,VWS V14.00,2013-03-10 17:38:00,
2013-03-10 12:43:00,38.4,37.9,29.69,NNE,12,0.0,4.0,98,0.00,,---,0.31,VWS V14.00,2013-03-10 17:43:00,
2013-03-10 12:48:00,38.3,37.8,29.69,North,11,0.0,0.0,98,0.00,,---,0.31,VWS V14.00,2013-03-10 17:48:00,
2013-03-10 12:53:00,38.2,37.7,29.70,NNE,12,0.0,1.0,98,0.00,,---,0.31,VWS V14.00,2013-03-10 17:53:00,
2013-03-10 12:58:00,38.0,37.5,29.70,NNE,12,0.0,2.0,98,0.00,,---,0.31,VWS V14.00,2013-03-10 17:58:00,
2013-03-10 13:03:00,37.9,37.4,29.70,NNE,12,0.0,1.0,98,0.00,,---,0.31,VWS V14.00,2013-03-10 18:03:00,
2013-03-10 13:08:00,37.7,37.2,29.70,ENE,68,0.0,3.0,98,0.00,,---,0.31,VWS V14.00,2013-03-10 18:08:00,
2013-03-10 13:13:00,37.5,37.0,29.70,NNE,29,0.0,2.0,98,0.00,,---,0.31,VWS V14.00,2013-03-10 18:13:00,
2013-03-10 13:18:00,37.3,36.8,29.70,NNW,346,3.0,4.0,98,0.00,,---,0.31,VWS V14.00,2013-03-10 18:18:00,
2013-03-10 13:23:00,37.2,36.7,29.69,NNE,15,0.0,1.0,98,0.00,,---,0.31,VWS V14.00,2013-03-10 18:23:00,
2013-03-10 13:28:00,37.1,36.6,29.69,NE,51,0.0,3.0,98,0.01,,---,0.32,VWS V14.00,2013-03-10 18:28:00,
2013-03-10 13:33:00,37.2,36.7,29.69,NE,51,0.0,1.0,98,0.02,,---,0.33,VWS V14.00,2013-03-10 18:33:00,
2013-03-10 13:38:00,37.2,36.7,29.69,NE,51,0.0,3.0,98,0.03,,---,0.34,VWS V14.00,2013-03-10 18:38:00,
2013-03-10 13:43:00,37.2,36.7,29.68,East,98,0.0,7.0,98,0.03,,---,0.34,VWS V14.00,2013-03-10 18:43:00,
2013-03-10 13:48:00,37.1,36.6,29.68,ENE,68,2.0,6.0,98,0.03,,---,0.34,VWS V14.00,2013-03-10 18:48:00,
2013-03-10 13:53:00,37.0,36.5,29.67,NE,53,0.0,4.0,98,0.03,,---,0.34,VWS V14.00,2013-03-10 18:53:00,
2013-03-10 13:58:00,37.0,36.5,29.67,ESE,109,5.0,5.0,98,0.04,,---,0.35,VWS V14.00,2013-03-10 18:58:00,
2013-03-10 14:03:00,36.9,36.4,29.66,ENE,60,4.0,6.0,98,0.04,,---,0.35,VWS V14.00,2013-03-10 19:03:00,
2013-03-10 14:08:00,36.8,36.3,29.66,NNE,29,0.0,7.0,98,0.05,,---,0.36,VWS V14.00,2013-03-10 19:08:00,
2013-03-10 14:13:00,36.9,36.4,29.65,ENE,64,1.0,5.0,98,0.06,,---,0.37,VWS V14.00,2013-03-10 19:13:00,
2013-03-10 14:18:00,36.9,36.4,29.65,North,5,3.0,7.0,98,0.07,,---,0.38,VWS V14.00,2013-03-10 19:18:00,
2013-03-10 14:23:00,37.0,36.5,29.65,East,79,6.0,8.0,98,0.07,,---,0.38,VWS V14.00,2013-03-10 19:23:00,
2013-03-10 14:28:00,37.0,36.5,29.64,NE,40,2.0,10.0,98,0.07,,---,0.38,VWS V14.00,2013-03-10 19:28:00,
2013-03-10 14:33:00,36.9,36.4,29.64,NNE,32,3.0,16.0,98,0.06,,---,0.38,VWS V14.00,2013-03-10 19:33:00,
2013-03-10 14:38:00,36.8,36.3,29.64,ENE,78,1.0,9.0,98,0.05,,---,0.38,VWS V14.00,2013-03-10 19:38:00,
2013-03-10 14:43:00,36.7,36.2,29.64,ENE,77,4.0,12.0,98,0.04,,---,0.38,VWS V14.00,2013-03-10 19:43:00,
2013-03-10 14:48:00,36.6,35.8,29.64,NNE,13,5.0,7.0,97,0.04,,---,0.38,VWS V14.00,2013-03-10 19:48:00,
2013-03-10 14:53:00,36.5,35.7,29.63,ENE,76,3.0,13.0,97,0.05,,---,0.39,VWS V14.00,2013-03-10 19:53:00,
2013-03-10 14:58:00,36.5,35.7,29.64,ENE,59,1.0,8.0,97,0.05,,---,0.39,VWS V14.00,2013-03-10 19:58:00,
2013-03-10 15:03:00,36.4,35.6,29.63,NE,40,1.0,10.0,97,0.05,,---,0.40,VWS V14.00,2013-03-10 20:03:00,
2013-03-10 15:08:00,36.4,35.6,29.63,NE,40,2.0,5.0,97,0.05,,---,0.40,VWS V14.00,2013-03-10 20:08:00,
2013-03-10 15:13:00,36.3,35.5,29.62,NE,51,6.0,9.0,97,0.05,,---,0.41,VWS V14.00,2013-03-10 20:13:00,
2013-03-10 15:18:00,36.2,35.4,29.62,ESE,113,7.0,7.0,97,0.04,,---,0.41,VWS V14.00,2013-03-10 20:18:00,
2013-03-10 15:23:00,36.1,35.3,29.62,ENE,57,6.0,11.0,97,0.04,,---,0.42,VWS V14.00,2013-03-10 20:23:00,
2013-03-10 15:29:00,36.1,35.3,29.62,NE,36,1.0,7.0,97,0.04,,---,0.42,VWS V14.00,2013-03-10 20:29:00,
2013-03-10 15:34:00,36.0,35.2,29.62,East,97,3.0,7.0,97,0.05,,---,0.43,VWS V14.00,2013-03-10 20:34:00,
2013-03-10 15:39:00,36.0,35.2,29.63,NE,51,6.0,7.0,97,0.06,,---,0.44,VWS V14.00,2013-03-10 20:39:00,
2013-03-10 15:44:00,35.9,35.1,29.63,NE,54,0.0,7.0,97,0.06,,---,0.44,VWS V14.00,2013-03-10 20:44:00,
2013-03-10 15:49:00,35.9,35.1,29.64,NE,38,3.0,6.0,97,0.06,,---,0.44,VWS V14.00,2013-03-10 20:49:00,
2013-03-10 15:54:00,35.9,35.1,29.64,ENE,64,2.0,6.0,97,0.06,,---,0.45,VWS V14.00,2013-03-10 20:54:00,
2013-03-10 15:59:00,35.9,35.1,29.63,ENE,60,2.0,5.0,97,0.07,,---,0.46,VWS V14.00,2013-03-10 20:59:00,
2013-03-10 16:04:00,35.9,35.1,29.63,NE,46,3.0,5.0,97,0.07,,---,0.47,VWS V14.00,2013-03-10 21:04:00,
2013-03-10 16:09:00,35.9,35.1,29.64,North,355,3.0,9.0,97,0.08,,---,0.48,VWS V14.00,2013-03-10 21:09:00,
2013-03-10 16:14:00,35.9,35.1,29.64,NNE,17,2.0,11.0,97,0.09,,---,0.49,VWS V14.00,2013-03-10 21:14:00,
2013-03-10 16:19:00,35.8,35.0,29.64,ENE,58,3.0,5.0,97,0.09,,---,0.50,VWS V14.00,2013-03-10 21:19:00,
2013-03-10 16:24:00,35.8,35.0,29.64,ENE,65,4.0,7.0,97,0.09,,---,0.51,VWS V14.00,2013-03-10 21:24:00,
2013-03-10 16:29:00,35.7,34.9,29.64,NNE,18,4.0,5.0,97,0.10,,---,0.52,VWS V14.00,2013-03-10 21:29:00,
2013-03-10 16:34:00,35.6,34.8,29.63,NNE,25,4.0,8.0,97,0.10,,---,0.53,VWS V14.00,2013-03-10 21:34:00,
2013-03-10 16:39:00,35.5,34.7,29.64,ENE,71,0.0,10.0,97,0.10,,---,0.53,VWS V14.00,2013-03-10 21:39:00,
2013-03-10 16:44:00,35.4,34.6,29.64,North,11,5.0,5.0,97,0.10,,---,0.54,VWS V14.00,2013-03-10 21:44:00,
2013-03-10 16:49:00,35.4,34.6,29.64,NE,49,3.0,5.0,97,0.11,,---,0.55,VWS V14.00,2013-03-10 21:49:00,
2013-03-10 16:54:00,35.3,34.5,29.64,North,360,3.0,6.0,97,0.11,,---,0.56,VWS V14.00,2013-03-10 21:54:00,
2013-03-10 16:59:00,35.3,34.5,29.63,ENE,57,2.0,6.0,97,0.12,,---,0.57,VWS V14.00,2013-03-10 21:59:00,
2013-03-10 17:04:00,35.2,34.4,29.62,ENE,71,0.0,13.0,97,0.12,,---,0.58,VWS V14.00,2013-03-10 22:04:00,
2013-03-10 17:09:00,35.2,34.4,29.62,ENE,70,6.0,10.0,97,0.11,,---,0.58,VWS V14.00,2013-03-10 22:09:00,
2013-03-10 17:14:00,35.2,34.4,29.61,ENE,74,4.0,7.0,97,0.11,,---,0.59,VWS V14.00,2013-03-10 22:14:00,
2013-03-10 17:19:00,35.1,34.3,29.61,North,360,0.0,10.0,97,0.11,,---,0.60,VWS V14.00,2013-03-10 22:19:00,
2013-03-10 17:24:00,35.1,34.3,29.60,NE,39,7.0,10.0,97,0.11,,---,0.61,VWS V14.00,2013-03-10 22:24:00,
2013-03-10 17:29:00,35.1,34.3,29.59,ENE,57,4.0,10.0,97,0.11,,---,0.62,VWS V14.00,2013-03-10 22:29:00,
2013-03-10 17:35:00,35.1,34.3,29.59,NE,38,3.0,11.0,97,0.10,,---,0.62,VWS V14.00,2013-03-10 22:35:00,
2013-03-10 17:40:00,35.1,34.3,29.59,NE,52,7.0,11.0,97,0.10,,---,0.63,VWS V14.00,2013-03-10 22:40:00,
2013-03-10 17:45:00,35.1,34.3,29.58,ENE,67,12.0,21.0,97,0.10,,---,0.63,VWS V14.00,2013-03-10 22:45:00,
2013-03-10 17:50:00,35.1,34.3,29.59,NE,35,4.0,12.0,97,0.10,,---,0.64,VWS V14.00,2013-03-10 22:50:00,
2013-03-10 17:55:00,35.1,34.1,29.59,East,83,5.0,12.0,96,0.09,,---,0.64,VWS V14.00,2013-03-10 22:55:00,
2013-03-10 18:00:00,35.1,34.1,29.58,NE,46,5.0,14.0,96,0.09,,---,0.65,VWS V14.00,2013-03-10 23:00:00,
2013-03-10 18:05:00,35.1,34.1,29.59,East,101,6.0,16.0,96,0.08,,---,0.65,VWS V14.00,2013-03-10 23:05:00,
2013-03-10 18:10:00,35.1,34.1,29.59,NNE,17,6.0,12.0,96,0.07,,---,0.65,VWS V14.00,2013-03-10 23:10:00,
2013-03-10 18:15:00,35.0,34.0,29.58,NE,52,4.0,14.0,96,0.07,,---,0.65,VWS V14.00,2013-03-10 23:15:00,
2013-03-10 18:20:00,35.0,34.0,29.57,NNE,33,2.0,13.0,96,0.07,,---,0.66,VWS V14.00,2013-03-10 23:20:00,
2013-03-10 18:25:00,34.9,33.9,29.56,NNE,31,3.0,17.0,96,0.06,,---,0.66,VWS V14.00,2013-03-10 23:25:00,
2013-03-10 18:30:00,34.9,33.9,29.58,NE,55,10.0,12.0,96,0.05,,---,0.66,VWS V14.00,2013-03-10 23:30:00,
2013-03-10 18:35:00,34.9,33.9,29.58,East,79,11.0,11.0,96,0.04,,---,0.66,VWS V14.00,2013-03-10 23:35:00,
2013-03-10 18:40:00,34.8,33.8,29.58,ENE,60,5.0,13.0,96,0.04,,---,0.66,VWS V14.00,2013-03-10 23:40:00,
2013-03-10 18:45:00,34.8,33.8,29.57,NE,53,3.0,5.0,96,0.03,,---,0.66,VWS V14.00,2013-03-10 23:45:00,
2013-03-10 18:50:00,34.8,33.8,29.58,NNE,19,5.0,5.0,96,0.02,,---,0.66,VWS V14.00,2013-03-10 23:50:00,
2013-03-10 18:55:00,34.8,33.8,29.56,ENE,67,11.0,14.0,96,0.02,,---,0.66,VWS V14.00,2013-03-10 23:55:00,
2013-03-10 19:00:00,34.8,33.8,29.56,North,5,10.0,12.0,96,0.01,,---,0.66,VWS V14.00,2013-03-11 00:00:00,
2013-03-10 19:05:00,34.8,33.8,29.57,ENE,60,0.0,3.0,96,0.01,,---,0.66,VWS V14.00,2013-03-11 00:05:00,
2013-03-10 19:10:00,34.8,33.8,29.57,NE,51,4.0,7.0,96,0.01,,---,0.66,VWS V14.00,2013-03-11 00:10:00,
2013-03-10 19:15:00,34.7,33.7,29.58,East,90,6.0,6.0,96,0.01,,---,0.66,VWS V14.00,2013-03-11 00:15:00,
2013-03-10 19:20:00,34.7,33.7,29.57,NNE,33,3.0,6.0,96,0.01,,---,0.67,VWS V14.00,2013-03-11 00:20:00,
2013-03-10 19:25:00,34.6,33.6,29.57,ENE,57,6.0,8.0,96,0.01,,---,0.67,VWS V14.00,2013-03-11 00:25:00,
2013-03-10 19:30:00,34.6,33.6,29.56,ENE,63,5.0,9.0,96,0.01,,---,0.67,VWS V14.00,2013-03-11 00:30:00,
2013-03-10 19:35:00,34.5,33.5,29.56,NE,46,5.0,9.0,96,0.01,,---,0.67,VWS V14.00,2013-03-11 00:35:00,
2013-03-10 19:40:00,34.5,33.5,29.56,NNE,29,9.0,9.0,96,0.02,,---,0.68,VWS V14.00,2013-03-11 00:40:00,
2013-03-10 19:45:00,34.5,33.5,29.55,NE,46,6.0,13.0,96,0.02,,---,0.68,VWS V14.00,2013-03-11 00:45:00,
2013-03-10 19:50:00,34.5,33.5,29.56,ENE,69,8.0,9.0,96,0.02,,---,0.68,VWS V14.00,2013-03-11 00:50:00,
2013-03-10 19:55:00,34.5,33.5,29.56,NE,46,11.0,11.0,96,0.02,,---,0.68,VWS V14.00,2013-03-11 00:55:00,
2013-03-10 20:00:00,34.4,33.4,29.56,East,82,2.0,5.0,96,0.03,,---,0.69,VWS V14.00,2013-03-11 01:00:00,
2013-03-10 20:05:00,34.4,33.4,29.56,ENE,64,5.0,6.0,96,0.03,,---,0.69,VWS V14.00,2013-03-11 01:05:00,
2013-03-10 20:10:00,34.3,33.3,29.55,ENE,57,11.0,13.0,96,0.03,,---,0.69,VWS V14.00,2013-03-11 01:10:00,
2013-03-10 20:15:00,34.3,33.3,29.56,NE,56,4.0,16.0,96,0.03,,---,0.69,VWS V14.00,2013-03-11 01:15:00,
2013-03-10 20:20:00,34.3,33.3,29.55,NNE,22,10.0,10.0,96,0.02,,---,0.69,VWS V14.00,2013-03-11 01:20:00,
2013-03-10 20:25:00,34.2,33.2,29.55,ENE,63,5.0,6.0,96,0.03,,---,0.70,VWS V14.00,2013-03-11 01:25:00,
2013-03-10 20:30:00,34.2,33.2,29.55,ENE,57,6.0,8.0,96,0.03,,---,0.70,VWS V14.00,2013-03-11 01:30:00,
2013-03-10 20:35:00,34.2,33.2,29.55,ENE,73,3.0,6.0,96,0.03,,---,0.70,VWS V14.00,2013-03-11 01:35:00,
2013-03-10 20:40:00,34.3,33.3,29.55,ENE,76,0.0,3.0,96,0.03,,---,0.71,VWS V14.00,2013-03-11 01:40:00,
2013-03-10 20:45:00,34.2,33.2,29.55,East,86,3.0,7.0,96,0.03,,---,0.71,VWS V14.00,2013-03-11 01:45:00,
2013-03-10 20:50:00,34.2,33.2,29.55,ENE,66,3.0,3.0,96,0.03,,---,0.71,VWS V14.00,2013-03-11 01:50:00,
2013-03-10 20:55:00,34.2,33.2,29.55,East,88,3.0,10.0,96,0.03,,---,0.71,VWS V14.00,2013-03-11 01:55:00,
2013-03-10 21:00:00,34.2,33.2,29.55,ENE,78,6.0,9.0,96,0.03,,---,0.72,VWS V14.00,2013-03-11 02:00:00,
2013-03-10 21:05:00,34.2,33.2,29.55,North,9,2.0,4.0,96,0.03,,---,0.72,VWS V14.00,2013-03-11 02:05:00,
2013-03-10 21:10:00,34.2,33.2,29.54,ENE,67,6.0,6.0,96,0.04,,---,0.73,VWS V14.00,2013-03-11 02:10:00,
2013-03-10 21:15:00,34.1,33.1,29.54,NNE,33,6.0,10.0,96,0.05,,---,0.74,VWS V14.00,2013-03-11 02:15:00,
2013-03-10 21:20:00,34.1,33.1,29.54,NE,51,4.0,7.0,96,0.05,,---,0.74,VWS V14.00,2013-03-11 02:20:00,
2013-03-10 21:26:00,34.1,33.1,29.54,NE,52,4.0,7.0,96,0.05,,---,0.75,VWS V14.00,2013-03-11 02:26:00,
2013-03-10 21:32:00,34.1,33.1,29.54,East,98,0.0,7.0,96,0.05,,---,0.75,VWS V14.00,2013-03-11 02:32:00,
2013-03-10 21:37:00,34.1,33.1,29.55,NE,55,6.0,6.0,96,0.05,,---,0.75,VWS V14.00,2013-03-11 02:37:00,
2013-03-10 21:42:00,34.1,33.1,29.54,SE,125,6.0,10.0,96,0.04,,---,0.75,VWS V14.00,2013-03-11 02:42:00,
2013-03-10 21:47:00,34.1,33.1,29.55,ENE,78,7.0,9.0,96,0.04,,---,0.75,VWS V14.00,2013-03-11 02:47:00,
2013-03-10 21:52:00,34.1,33.1,29.55,North,11,2.0,9.0,96,0.05,,---,0.76,VWS V14.00,2013-03-11 02:52:00,
2013-03-10 21:57:00,34.1,33.1,29.56,NNE,24,9.0,12.0,96,0.05,,---,0.76,VWS V14.00,2013-03-11 02:57:00,
2013-03-10 22:02:00,34.2,33.2,29.56,ENE,75,1.0,4.0,96,0.04,,---,0.76,VWS V14.00,2013-03-11 03:02:00,
2013-03-10 22:07:00,34.1,33.1,29.56,ENE,61,0.0,3.0,96,0.04,,---,0.76,VWS V14.00,2013-03-11 03:07:00,
2013-03-10 22:12:00,34.0,33.0,29.56,ESE,105,0.0,6.0,96,0.03,,---,0.76,VWS V14.00,2013-03-11 03:12:00,
2013-03-10 22:17:00,34.0,33.0,29.56,NNE,13,4.0,6.0,96,0.03,,---,0.77,VWS V14.00,2013-03-11 03:17:00,
2013-03-10 22:22:00,33.9,32.9,29.56,North,355,4.0,4.0,96,0.03,,---,0.77,VWS V14.00,2013-03-11 03:22:00,
2013-03-10 22:27:00,33.9,32.9,29.55,NNE,30,1.0,10.0,96,0.02,,---,0.77,VWS V14.00,2013-03-11 03:27:00,
2013-03-10 22:32:00,33.8,32.8,29.56,ENE,58,2.0,3.0,96,0.02,,---,0.77,VWS V14.00,2013-03-11 03:32:00,
2013-03-10 22:37:00,33.7,32.7,29.56,NNE,17,2.0,4.0,96,0.02,,---,0.77,VWS V14.00,2013-03-11 03:37:00,
2013-03-10 22:42:00,33.7,32.7,29.56,NNE,19,0.0,5.0,96,0.02,,---,0.77,VWS V14.00,2013-03-11 03:42:00,
2013-03-10 22:47:00,33.6,32.6,29.56,North,5,2.0,7.0,96,0.03,,---,0.78,VWS V14.00,2013-03-11 03:47:00,
2013-03-10 22:52:00,33.6,32.6,29.55,NE,53,3.0,4.0,96,0.02,,---,0.78,VWS V14.00,2013-03-11 03:52:00,
2013-03-10 22:57:00,33.5,32.5,29.56,North,355,0.0,5.0,96,0.02,,---,0.78,VWS V14.00,2013-03-11 03:57:00,
2013-03-10 23:00:00,33.5,32.7,29.56,NNE,12,3.0,5.0,97,0.02,,---,0.78,VWS V14.00,2013-03-11 04:00:00,
2013-03-10 23:05:00,33.5,32.7,29.56,NE,38,0.0,0.0,97,0.02,,---,0.78,VWS V14.00,2013-03-11 04:05:00,
2013-03-10 23:10:00,33.4,32.6,29.56,NE,46,2.0,3.0,97,0.02,,---,0.78,VWS V14.00,2013-03-11 04:10:00,
2013-03-10 23:15:00,33.4,32.6,29.55,North,9,1.0,2.0,97,0.01,,---,0.78,VWS V14.00,2013-03-11 04:15:00,
2013-03-10 23:20:00,33.4,32.6,29.55,NE,55,2.0,2.0,97,0.01,,---,0.78,VWS V14.00,2013-03-11 04:20:00,
2013-03-10 23:25:00,33.4,32.6,29.54,NNW,345,4.0,6.0,97,0.01,,---,0.78,VWS V14.00,2013-03-11 04:25:00,
2013-03-10 23:30:00,33.4,32.6,29.54,ENE,65,0.0,0.0,97,0.01,,---,0.78,VWS V14.00,2013-03-11 04:30:00,
2013-03-10 23:35:00,33.4,32.6,29.54,North,9,0.0,1.0,97,0.01,,---,0.78,VWS V14.00,2013-03-11 04:35:00,
2013-03-10 23:40:00,33.4,32.6,29.55,NE,48,3.0,3.0,97,0.01,,---,0.78,VWS V14.00,2013-03-11 04:40:00,
2013-03-10 23:46:00,33.4,32.6,29.55,NNE,24,0.0,0.0,97,0.00,,---,0.78,VWS V14.00,2013-03-11 04:46:00,
2013-03-10 23:51:00,33.4,32.6,29.55,North,355,0.0,5.0,97,0.00,,---,0.78,VWS V14.00,2013-03-11 04:51:00,
2013-03-10 23:56:00,33.4,32.6,29.55,NNW,348,0.0,3.0,97,0.00,,---,0.78,VWS V14.00,2013-03-11 04:56:00,